Temp
-8 -8 -8 -8 -8 -9 -9 -9 -9 -9 -9 -9 -9 -10 -10 -10 -9 -9 -9 -9 -9 -9 -9 -9 -9 -10 -11 -11 -11 -11 -11 -11 -10 -10 -10 -10 -10 -10 -10 -10 -9 -9 -10
-8 -8 -8 -8 -9 -9 -9 -9 -9 -9 -10 -10 -10 -10 -10 -10 -10 -10 -10 -10 -10 -10 -10 -10 -10 -11 -11 -11 -12 -11 -11 -11 -10 -10 -10 -10 -10 -10 -10 -10 -9 -10 -10
-9 -9 -9 -9 -9 -9 -10 -9 -9 -10 -10 -10 -10 -10 -10 -10 -10 -10 -11 -10 -10 -11 -10 -10 -10 -11 -11 -11 -12 -11 -11 -11 -10 -10 -10 -10 -10 -10 -10 -10 -10 -10 -10
-9 -9 -9 -9 -9 -9 -10 -10 -10 -10 -10 -10 -10 -10 -10 -10 -10 -11 -10 -11 -11 -11 -11 -11 -11 -11 -12 -12 -12 -12 -11 -11 -11 -11 -10 -10 -10 -10 -10 -10 -10 -10 -10
-9 -9 -9 -9 -9 -10 -10 -10 -10 -10 -10 -11 -11 -11 -11 -11 -11 -11 -11 -11 -12 -12 -12 -11 -11 -12 -12 -12 -12 -12 -11 -11 -11 -11 -11 -10 -10 -10 -10 -11 -10 -10 -10
-9 -9 -9 -9 -9 -10 -10 -10 -10 -10 -11 -11 -11 -11 -11 -11 -11 -11 -11 -11 -12 -12 -12 -12 -12 -12 -12 -12 -12 -12 -12 -11 -11 -11 -11 -11 -11 -11 -11 -11 -11 -10 -11
-9 -9 -10 -9 -9 -10 -10 -10 -10 -11 -11 -11 -11 -11 -11 -11 -11 -12 -11 -12 -12 -12 -12 -12 -13 -13 -13 -13 -12 -12 -12 -12 -11 -11 -11 -11 -11 -11 -11 -11 -11 -11 -11
-10 -10 -11 -10 -10 -11 -10 -10 -11 -11 -11 -11 -11 -11 -11 -11 -11 -11 -11 -12 -13 -13 -13 -13 -13 -13 -13 -13 -13 -12 -12 -12 -12 -12 -11 -11 -11 -12 -12 -11 -11 -11 -11
-10 -11 -11 -11 -12 -11 -11 -10 -11 -11 -11 -11 -12 -11 -10 -10 -11 -10 -10 -11 -12 -13 -13 -13 -13 -12 -13 -13 -13 -13 -12 -13 -12 -12 -12 -12 -12 -12 -12 -12 -12 -11 -12
-11 -13 -12 -12 -12 -11 -11 -11 -11 -11 -11 -12 -12 -12 -11 -11 -12 -10 -11 -11 -11 -12 -12 -13 -12 -12 -13 -13 -13 -13 -12 -12 -13 -12 -12 -13 -12 -12 -12 -12 -12 -12 -12
-12 -13 -13 -13 -12 -12 -11 -11 -11 -12 -11 -12 -12 -12 -11 -11 -11 -12 -11 -11 -12 -11 -11 -13 -12 -13 -13 -14 -13 -13 -13 -13 -13 -13 -13 -13 -13 -13 -13 -13 -12 -12 -12
-13 -14 -14 -13 -13 -12 -12 -12 -11 -12 -12 -12 -12 -12 -11 -11 -11 -11 -12 -12 -11 -11 -11 -11 -12 -13 -13 -14 -14 -14 -14 -13 -13 -13 -13 -13 -13 -13 -13 -13 -12 -12 -12
-13 -14 -14 -13 -13 -13 -12 -12 -12 -12 -12 -12 -12 -12 -12 -11 -11 -12 -11 -12 -11 -12 -11 -11 -12 -13 -13 -14 -14 -14 -13 -14 -14 -14 -14 -13 -14 -13 -13 -13 -13 -12 -12
-14 -14 -14 -14 -14 -13 -12 -12 -13 -13 -12 -12 -12 -11 -12 -12 -11 -12 -12 -11 -12 -11 -11 -11 -12 -12 -13 -14 -14 -14 -13 -13 -14 -14 -14 -14 -14 -14 -13 -13 -13 -13 -12
-15 -15 -14 -14 -14 -14 -13 -13 -13 -13 -13 -12 -12 -12 -11 -12 -12 -12 -12 -11 -11 -11 -11 -11 -12 -13 -13 -14 -14 -13 -13 -13 -13 -14 -14 -14 -14 -14 -13 -13 -13 -12 -12
-15 -15 -14 -14 -13 -14 -13 -13 -13 -13 -13 -13 -12 -12 -12 -12 -12 -12 -12 -12 -12 -12 -12 -12 -12 -13 -12 -13 -13 -13 -13 -13 -13 -14 -15 -14 -14 -13 -13 -13 -13 -12 -12
-15 -15 -15 -14 -14 -13 -13 -13 -13 -13 -13 -13 -12 -12 -12 -12 -12 -12 -12 -12 -12 -12 -12 -12 -12 -12 -12 -12 -13 -13 -13 -13 -14 -14 -14 -14 -14 -13 -13 -13 -13 -13 -13
-15 -15 -15 -15 -14 -14 -13 -13 -13 -13 -13 -13 -12 -12 -12 -12 -12 -12 -12 -12 -12 -12 -12 -12 -12 -11 -12 -12 -12 -12 -12 -13 -12 -13 -13 -14 -13 -13 -13 -13 -13 -13 -13
-16 -16 -15 -15 -14 -14 -13 -13 -13 -13 -13 -13 -12 -12 -12 -12 -12 -13 -12 -13 -12 -12 -12 -12 -12 -12 -12 -12 -12 -12 -12 -12 -12 -13 -13 -13 -13 -13 -13 -13 -13 -13 -13
-16 -16 -15 -15 -14 -14 -14 -13 -13 -13 -13 -12 -12 -12 -12 -12 -12 -12 -13 -13 -12 -12 -12 -12 -12 -12 -12 -12 -12 -12 -12 -12 -12 -13 -13 -13 -13 -13 -13 -13 -13 -13 -13
-16 -15 -16 -15 -14 -14 -14 -13 -13 -13 -13 -12 -12 -13 -13 -13 -13 -12 -12 -13 -12 -12 -12 -12 -12 -12 -12 -12 -12 -12 -12 -13 -12 -13 -13 -13 -13 -13 -13 -13 -13 -14 -13
-16 -16 -16 -15 -14 -14 -14 -13 -13 -13 -13 -13 -13 -13 -13 -13 -13 -13 -12 -12 -13 -13 -12 -12 -12 -12 -12 -12 -13 -13 -12 -13 -13 -13 -13 -13 -13 -13 -13 -13 -13 -13 -13
-16 -16 -16 -15 -14 -14 -14 -14 -14 -13 -13 -13 -13 -13 -13 -13 -12 -12 -12 -12 -13 -13 -12 -12 -12 -13 -13 -13 -13 -13 -13 -13 -13 -13 -13 -13 -13 -13 -13 -13 -13 -13 -13
-16 -16 -15 -15 -15 -14 -14 -14 -14 -13 -13 -13 -14 -14 -14 -13 -12 -12 -12 -12 -12 -12 -13 -13 -13 -13 -13 -13 -13 -13 -13 -13 -13 -13 -13 -13 -13 -13 -13 -13 -13 -13 -14
-16 -16 -15 -15 -15 -14 -14 -14 -14 -13 -13 -13 -13 -14 -14 -13 -13 -13 -13 -12 -13 -13 -13 -13 -13 -13 -13 -13 -13 -13 -13 -13 -13 -13 -13 -13 -13 -13 -13 -14 -14 -14 -14
-16 -15 -15 -15 -14 -14 -14 -14 -14 -14 -13 -13 -13 -13 -14 -14 -13 -13 -13 -13 -13 -13 -13 -13 -13 -13 -13 -13 -13 -13 -13 -13 -13 -13 -13 -13 -14 -14 -13 -13 -14 -14 -14
Height
5834 5834 5833 5832 5831 5829 5828 5828 5828 5826 5826 5826 5826 5826 5825 5824 5824 5824 5824 5825 5826 5827 5829 5829 5831 5833 5835 5838 5841 5844 5846 5847 5849 5850 5851 5853 5854 5855 5856 5856 5856 5856 5855
5829 5829 5828 5827 5827 5825 5825 5823 5823 5823 5822 5821 5821 5822 5821 5820 5819 5819 5820 5820 5821 5823 5824 5826 5827 5829 5832 5834 5837 5840 5842 5844 5846 5847 5849 5850 5852 5853 5854 5854 5855 5855 5854
5824 5824 5824 5824 5823 5821 5821 5819 5818 5819 5819 5817 5817 5816 5817 5817 5815 5814 5814 5816 5817 5819 5821 5822 5824 5826 5828 5831 5834 5837 5839 5841 5843 5844 5846 5848 5850 5851 5852 5852 5853 5853 5852
5819 5819 5818 5817 5818 5817 5817 5815 5814 5814 5815 5814 5813 5812 5811 5810 5810 5810 5811 5812 5812 5814 5816 5818 5820 5822 5825 5828 5831 5834 5836 5838 5840 5842 5844 5846 5848 5849 5850 5850 5851 5851 5851
5814 5814 5813 5811 5812 5812 5812 5812 5810 5809 5808 5810 5808 5807 5806 5805 5804 5804 5805 5807 5809 5810 5811 5814 5816 5819 5822 5825 5828 5830 5833 5836 5837 5839 5842 5844 5845 5847 5848 5849 5850 5849 5849
5808 5808 5808 5807 5806 5807 5807 5806 5806 5804 5803 5803 5803 5801 5800 5800 5798 5798 5799 5802 5805 5806 5807 5810 5813 5816 5818 5822 5825 5827 5830 5833 5835 5837 5839 5841 5843 5844 5845 5846 5847 5847 5847
5802 5803 5803 5802 5801 5801 5801 5800 5800 5799 5799 5798 5796 5795 5793 5793 5792 5792 5793 5795 5798 5801 5802 5805 5808 5811 5813 5817 5821 5824 5827 5830 5832 5835 5837 5838 5840 5842 5843 5844 5844 5845 5845
5796 5797 5798 5797 5794 5795 5794 5793 5794 5793 5792 5791 5789 5787 5786 5783 5782 5782 5786 5787 5791 5796 5799 5801 5803 5807 5809 5812 5816 5821 5824 5826 5828 5831 5833 5836 5837 5839 5840 5841 5842 5842 5842
5789 5791 5792 5791 5790 5789 5788 5787 5786 5787 5786 5785 5782 5780 5776 5776 5777 5776 5779 5780 5786 5789 5794 5797 5799 5802 5806 5808 5812 5817 5820 5822 5825 5827 5829 5832 5834 5835 5837 5838 5839 5839 5839
5782 5785 5785 5785 5784 5783 5782 5781 5781 5780 5780 5779 5778 5777 5776 5776 5776 5756 5773 5779 5783 5785 5790 5794 5795 5796 5800 5804 5809 5813 5816 5818 5820 5823 5825 5828 5830 5832 5833 5834 5835 5836 5836
5777 5778 5778 5778 5777 5776 5775 5774 5774 5774 5773 5774 5773 5773 5773 5773 5773 5774 5772 5776 5781 5784 5786 5789 5792 5793 5796 5800 5803 5806 5810 5814 5816 5819 5822 5824 5826 5828 5829 5831 5832 5833 5834
5770 5772 5771 5772 5771 5769 5768 5768 5768 5767 5768 5768 5768 5769 5768 5770 5769 5768 5770 5771 5776 5780 5781 5785 5787 5790 5792 5796 5799 5802 5805 5810 5812 5815 5818 5821 5823 5825 5826 5828 5829 5830 5831
5765 5765 5765 5766 5765 5763 5763 5762 5762 5762 5764 5762 5763 5764 5764 5765 5765 5766 5767 5768 5769 5773 5776 5781 5783 5786 5788 5791 5795 5798 5801 5805 5808 5811 5814 5816 5818 5821 5821 5823 5825 5826 5827
5758 5758 5760 5760 5759 5757 5757 5757 5756 5758 5759 5758 5758 5758 5758 5759 5759 5759 5760 5762 5764 5769 5771 5776 5781 5782 5784 5786 5789 5794 5798 5801 5803 5807 5809 5811 5815 5817 5818 5819 5821 5822 5823
5752 5753 5754 5753 5753 5751 5751 5751 5751 5753 5754 5753 5754 5754 5753 5753 5753 5753 5754 5757 5760 5763 5767 5771 5777 5778 5779 5781 5785 5789 5793 5797 5799 5801 5804 5806 5810 5812 5813 5815 5817 5818 5819
5745 5746 5747 5747 5747 5745 5745 5745 5745 5748 5748 5748 5748 5749 5748 5748 5748 5748 5749 5752 5755 5760 5764 5768 5771 5772 5773 5776 5780 5784 5788 5792 5794 5796 5799 5802 5805 5808 5808 5811 5813 5815 5816
5739 5741 5741 5741 5741 5739 5739 5739 5740 5743 5742 5742 5742 5742 5743 5743 5742 5743 5744 5747 5751 5755 5760 5762 5765 5769 5771 5773 5777 5780 5784 5786 5788 5791 5794 5797 5799 5803 5804 5807 5808 5810 5812
5733 5735 5735 5736 5735 5734 5732 5732 5734 5737 5737 5737 5736 5735 5737 5738 5737 5736 5738 5743 5746 5749 5754 5757 5760 5765 5768 5770 5773 5776 5779 5782 5784 5787 5789 5792 5796 5798 5800 5802 5804 5806 5808
5727 5729 5729 5729 5729 5729 5727 5726 5728 5730 5730 5731 5731 5730 5729 5730 5730 5730 5733 5738 5741 5744 5748 5752 5756 5761 5764 5766 5769 5772 5774 5778 5780 5783 5785 5789 5791 5794 5795 5797 5800 5802 5804
5720 5722 5724 5724 5723 5722 5721 5722 5724 5725 5724 5724 5723 5723 5722 5722 5723 5726 5728 5732 5735 5739 5743 5748 5752 5756 5759 5761 5765 5767 5770 5773 5776 5779 5782 5784 5788 5790 5791 5793 5796 5798 5799
5714 5717 5718 5717 5717 5717 5716 5718 5719 5719 5719 5718 5716 5715 5714 5714 5712 5718 5723 5727 5729 5735 5739 5743 5748 5751 5754 5758 5761 5764 5767 5770 5774 5776 5778 5779 5783 5785 5786 5788 5790 5792 5793
5709 5711 5712 5711 5712 5711 5712 5715 5715 5714 5714 5713 5711 5708 5708 5708 5710 5712 5717 5722 5726 5730 5734 5738 5743 5747 5750 5753 5757 5760 5765 5768 5770 5771 5773 5775 5777 5780 5781 5782 5783 5785 5785
5703 5705 5705 5706 5707 5707 5709 5710 5710 5710 5710 5709 5706 5705 5704 5703 5705 5707 5711 5715 5721 5726 5730 5734 5738 5742 5746 5748 5752 5756 5760 5763 5764 5767 5768 5771 5773 5774 5774 5775 5776 5777 5778
5697 5699 5699 5701 5702 5703 5705 5706 5706 5707 5707 5705 5703 5701 5699 5699 5698 5699 5705 5711 5716 5721 5726 5731 5734 5739 5743 5746 5749 5752 5755 5758 5759 5763 5763 5764 5765 5766 5767 5767 5768 5769 5769
5690 5693 5694 5696 5698 5699 5701 5702 5703 5704 5704 5703 5702 5699 5697 5696 5697 5699 5703 5708 5712 5716 5722 5726 5731 5736 5739 5742 5745 5748 5750 5753 5754 5756 5757 5757 5758 5758 5758 5758 5758 5758 5758
5683 5687 5690 5692 5694 5696 5697 5698 5699 5701 5701 5700 5700 5699 5696 5695 5696 5698 5700 5704 5709 5714 5718 5722 5726 5730 5734 5737 5740 5743 5745 5747 5748 5749 5750 5750 5751 5751 5750 5751 5751 5749 5750
Wind_Speed
26 25 23 22 22 23 24 25 25 24 21 21 21 22 22 23 22 21 24 28 27 27 27 26 24 22 22 21 18 17 16 14 15 14 15 13 14 13 12 12 9 10 12
25 24 25 25 24 23 24 25 24 22 21 22 24 23 24 24 26 25 23 22 26 27 26 26 25 23 22 21 19 16 15 16 15 14 14 15 14 13 12 11 9 8 12
24 25 25 25 23 24 23 23 22 21 21 23 24 27 27 25 25 27 24 20 19 23 25 26 25 24 22 21 19 16 15 16 15 15 15 14 14 13 12 11 9 9 11
27 26 26 28 23 24 25 23 22 20 22 24 24 26 26 26 23 24 24 22 18 19 23 25 25 24 22 21 19 18 17 16 16 16 16 15 14 14 13 12 11 8 13
29 28 28 31 29 28 27 28 25 23 22 24 24 24 24 23 24 22 23 22 18 18 21 26 27 23 23 23 22 20 18 16 16 17 16 15 16 15 14 13 10 11 12
31 31 29 31 34 32 29 29 29 24 24 23 25 25 25 25 25 25 23 24 20 20 23 26 25 24 24 23 24 21 18 17 17 17 17 17 16 15 15 15 12 13 12
34 34 30 32 36 33 31 32 30 27 25 24 24 28 29 27 27 26 26 25 24 20 23 28 26 27 26 25 25 25 23 20 19 18 19 18 17 15 17 15 14 13 12
36 36 31 35 39 37 33 32 30 29 25 26 26 29 29 30 32 31 29 29 24 20 22 27 29 28 26 27 27 27 25 22 23 21 22 19 18 18 18 16 15 15 14
39 36 30 36 40 38 34 34 28 29 26 27 25 26 25 23 28 28 25 27 21 18 19 25 30 30 30 28 30 28 25 22 22 23 23 21 21 21 19 15 17 16 16
38 36 34 35 34 36 35 34 28 28 27 25 20 21 23 22 16 38 33 19 12 16 20 26 31 33 34 32 31 29 28 25 28 27 24 21 22 23 20 17 16 17 17
38 36 36 37 30 34 34 32 30 27 27 21 18 21 22 21 20 30 28 23 31 24 20 26 31 35 35 35 33 29 30 26 22 27 24 23 24 25 22 19 18 18 18
39 39 37 33 30 32 32 31 28 26 23 19 19 19 21 20 21 26 22 27 29 28 30 24 26 29 32 36 33 32 24 25 25 24 23 25 25 26 23 20 18 20 20
39 39 30 30 30 32 31 29 27 24 24 19 19 20 21 22 23 24 26 32 35 25 31 32 21 23 29 34 35 31 30 28 28 28 27 28 28 22 20 19 21 21 20
40 36 29 27 32 32 31 28 27 24 26 20 20 22 23 23 23 26 26 25 32 29 30 32 24 21 26 32 34 33 31 32 30 31 30 31 28 32 24 20 20 20 20
38 35 32 32 32 32 31 29 27 29 26 22 22 25 25 22 23 26 26 26 33 23 25 33 25 22 20 33 32 33 34 33 31 30 30 31 36 30 22 22 21 20 22
36 32 31 33 32 32 31 30 28 31 27 23 23 25 21 17 22 24 24 26 27 29 27 32 26 20 19 28 34 32 33 35 34 32 33 32 28 24 24 24 24 25 24
32 30 27 32 33 32 31 30 30 31 27 25 24 23 23 22 22 26 25 29 29 31 30 34 27 21 21 23 30 33 33 36 36 34 30 31 27 29 26 26 26 27 25
32 28 29 35 31 31 31 29 30 31 27 24 23 23 24 24 24 27 27 30 27 33 39 41 33 23 25 26 29 32 33 39 32 28 29 27 31 30 27 28 27 28 28
31 29 32 33 28 28 31 25 28 27 22 21 22 24 23 24 23 24 24 28 29 30 38 44 38 30 27 27 31 36 37 33 33 32 31 31 34 31 29 27 28 30 29
31 31 31 29 25 27 25 22 23 20 20 21 23 25 26 26 24 24 30 29 32 30 41 47 43 35 34 30 33 34 33 34 33 32 29 29 33 33 29 28 28 30 30
30 30 29 25 22 29 21 22 20 18 18 20 24 27 24 25 19 27 23 28 27 33 37 44 42 40 33 28 29 23 24 26 26 25 28 27 34 34 33 31 30 30 29
28 31 26 23 22 25 22 20 16 15 16 15 17 18 16 19 24 26 30 26 27 33 35 40 39 38 30 28 30 26 24 24 25 25 28 31 32 34 38 36 35 33 34
27 31 25 21 23 23 23 17 14 13 12 13 15 13 8 14 22 27 32 29 30 32 32 37 37 23 24 22 20 19 22 24 29 28 30 28 32 36 41 40 39 40 41
30 28 25 20 23 23 23 15 12 11 10 7 9 13 9 9 15 20 30 32 32 31 30 32 23 25 21 19 20 18 19 23 28 29 30 30 30 34 40 40 41 41 38
30 28 27 20 24 25 22 15 12 10 8 5 7 6 9 6 10 22 27 29 31 32 33 32 25 24 24 23 21 22 22 24 29 30 31 33 31 32 35 37 43 47 48
31 29 23 22 25 26 20 16 12 10 7 2 3 4 4 4 9 10 19 27 31 29 28 26 28 28 30 28 25 23 26 30 29 31 32 32 31 34 34 36 40 45 45
Wind_Direction
310 312 307 300 289 280 280 282 286 282 278 278 276 276 274 269 270 270 262 250 250 246 240 236 233 226 224 221 226 231 234 231 228 232 241 241 254 260 260 273 275 284 310
309 310 305 301 296 286 278 280 286 276 277 278 280 279 275 276 273 270 269 260 249 246 244 238 231 222 220 219 220 224 222 225 228 234 239 243 250 253 258 266 264 278 308
301 303 298 294 295 289 281 281 278 275 276 277 282 285 283 278 270 265 272 272 258 252 244 240 233 226 217 216 216 211 216 220 222 228 232 237 243 246 252 260 256 279 300
298 299 299 297 296 295 283 275 269 268 272 278 281 282 283 280 283 268 265 268 262 250 244 232 228 223 220 213 207 207 214 213 217 223 227 231 241 246 249 251 248 279 291
299 301 302 302 296 295 286 281 268 267 270 280 279 280 280 281 277 273 259 259 265 249 237 232 226 218 218 213 205 207 211 214 216 221 228 230 237 244 248 247 247 285 274
300 301 298 297 293 295 288 280 273 266 271 274 274 275 280 275 274 265 259 252 247 250 250 230 218 211 213 212 209 204 212 216 217 220 228 232 235 241 242 249 259 275 265
296 295 293 290 288 289 286 279 276 272 276 275 274 275 276 270 265 258 252 246 243 246 248 228 208 208 206 210 212 212 211 217 218 221 228 229 233 240 238 238 259 255 252
297 295 291 283 284 287 282 276 275 274 278 277 277 277 265 255 251 252 243 238 228 238 242 224 203 203 205 206 208 213 211 215 216 220 225 227 231 228 241 237 247 251 241
291 293 287 278 286 288 281 275 269 272 278 281 284 274 275 266 267 255 267 232 218 215 231 221 203 207 205 208 204 212 211 214 216 220 221 223 230 224 233 246 249 245 233
286 283 284 284 287 283 276 273 266 268 274 276 276 272 278 278 271 246 232 241 240 215 226 228 209 206 208 205 205 211 210 220 217 219 215 225 226 227 238 245 247 240 235
282 280 287 281 286 274 272 270 265 265 268 263 264 269 269 271 259 250 244 233 261 236 221 223 221 214 210 207 206 211 206 218 214 220 224 220 221 232 260 229 237 239 237
282 284 280 288 286 278 271 268 263 260 259 264 260 268 270 264 260 259 248 262 239 235 237 228 220 220 217 210 210 217 210 214 212 219 222 232 240 244 228 242 244 240 238
277 279 285 284 284 279 268 266 257 253 257 261 264 271 271 261 260 256 258 259 234 227 232 219 210 220 221 214 212 215 213 214 216 221 226 239 233 237 225 236 239 239 237
270 278 283 284 284 278 269 261 248 248 254 257 263 271 275 267 266 261 258 248 222 230 221 213 215 217 219 214 210 212 216 218 229 233 226 231 233 240 233 235 240 237 237
270 276 273 274 276 279 267 254 245 250 252 255 260 269 275 267 263 259 250 242 224 209 208 211 211 212 214 211 208 213 219 223 227 228 228 230 233 239 219 233 237 236 236
269 272 273 273 271 275 263 251 243 247 253 259 262 268 263 271 267 258 248 234 206 205 203 203 209 211 213 209 208 214 221 227 230 234 231 241 245 223 223 229 234 234 238
266 270 271 276 273 271 262 253 247 245 251 258 261 269 262 271 266 253 240 222 219 216 211 207 212 222 221 209 213 218 223 228 229 235 235 238 240 220 224 231 233 236 238
262 265 270 279 271 263 261 256 252 248 254 259 264 268 264 263 267 246 235 218 230 212 213 207 215 225 224 215 215 219 229 239 238 231 227 234 218 220 224 231 233 237 242
256 260 267 271 272 265 261 260 253 255 258 263 265 266 267 261 254 236 221 223 221 214 212 209 218 222 228 223 226 232 235 236 239 228 225 232 222 224 228 234 239 244 248
252 258 268 270 275 265 265 251 247 253 265 269 270 266 265 259 235 233 215 226 228 223 217 214 218 232 234 232 234 234 235 236 240 229 224 227 227 229 232 238 243 248 250
249 261 269 266 279 267 254 243 246 256 269 275 270 264 259 248 244 234 231 228 229 232 216 212 220 228 233 243 237 238 234 227 219 226 225 235 229 233 235 239 245 249 253
242 256 262 270 276 261 243 238 251 265 274 277 273 254 231 235 225 240 221 232 222 215 216 216 221 229 242 247 234 236 231 231 231 235 232 235 239 239 242 241 245 249 251
240 253 260 265 267 243 236 241 257 267 278 285 268 245 221 228 231 234 234 214 225 218 225 226 223 223 231 226 228 227 231 233 239 238 232 238 244 251 251 245 246 251 253
234 245 253 258 256 237 235 241 257 267 266 290 297 247 243 234 237 224 205 217 216 215 217 210 216 214 219 218 219 227 233 239 246 245 246 249 254 252 253 248 249 252 257
228 240 246 253 245 234 236 240 250 264 264 263 292 288 249 221 205 194 198 207 219 220 214 221 216 216 226 234 236 241 244 251 255 252 254 257 259 258 250 245 247 250 254
223 231 241 252 242 233 233 238 245 263 267 264 300 324 289 212 182 194 216 214 206 210 209 211 217 224 231 234 241 256 255 255 252 251 254 258 260 263 263 259 256 254 255